RH
25 23 23 21 19 14 8 7 7 7 7 5 4 3 3 3 38 73 79 88 63 40 12 6 5 10 10 6 5 5 5 5 5 5 6 4 4 7 7 6 6 6 5 5 5 5 5
13 12 10 13 11 7 5 4 4 4 6 6 5 4 3 3 2 11 71 56 73 63 78 14 6 5 8 10 6 5 5 5 5 5 5 5 4 4 7 7 6 5 6 6 5 5 5
19 14 9 7 6 6 6 6 5 4 4 4 4 4 3 3 2 2 7 66 60 68 81 62 13 7 4 6 8 6 6 5 5 5 5 6 5 4 4 6 6 6 5 6 6 5 6
22 19 16 12 8 8 8 7 7 6 6 6 6 5 5 4 3 2 2 4 51 73 78 82 38 18 8 5 8 8 7 5 5 5 5 5 10 6 4 4 5 6 5 5 6 6 5
24 20 17 15 13 11 10 9 9 8 7 7 7 8 8 7 5 4 2 2 6 52 68 89 68 34 21 8 4 7 7 6 5 5 5 5 6 10 6 4 4 4 4 4 5 6 5
28 26 22 19 16 13 12 11 10 10 9 9 10 10 11 10 9 7 5 3 2 17 66 64 83 50 42 14 7 4 6 7 6 5 5 5 5 6 9 7 4 4 4 4 5 8 7
39 38 34 30 26 22 18 17 14 14 13 12 11 11 10 9 10 9 8 5 3 4 48 44 48 64 73 37 17 6 4 6 6 6 6 5 5 5 6 11 12 11 10 8 8 10 10
48 42 36 32 29 28 26 23 20 19 17 16 13 11 8 6 5 6 6 6 5 4 5 16 37 49 71 65 36 17 6 4 5 6 6 6 5 5 8 11 14 14 12 12 13 16 12
53 49 40 31 25 24 23 21 19 18 16 14 13 10 8 7 5 4 4 4 3 9 29 5 14 30 53 67 76 34 18 8 4 4 5 6 5 5 6 8 9 9 9 12 14 20 17
64 58 49 42 32 26 25 24 22 20 17 14 12 10 9 8 6 5 4 4 3 6 86 22 46 11 41 49 69 67 29 16 8 3 4 5 5 5 5 5 7 8 11 14 15 16 10
69 66 58 49 40 35 30 27 24 22 20 17 15 12 11 8 6 5 4 4 3 13 98 72 74 38 22 51 40 72 38 27 16 7 4 3 4 5 5 5 7 6 12 14 16 14 11
43 50 53 51 45 39 34 32 28 24 21 18 15 14 12 10 8 6 5 4 3 55 100 90 71 32 37 41 38 64 68 34 29 18 7 3 4 5 4 5 6 8 10 16 17 16 9
37 38 46 47 45 41 37 33 29 24 20 16 12 9 8 8 8 8 6 4 6 30 93 98 44 41 64 67 45 65 73 55 37 26 14 7 4 3 4 4 6 7 10 15 17 15 6
77 43 31 30 35 38 36 32 28 24 18 12 8 6 6 5 6 7 8 7 83 5 61 84 76 59 53 34 52 68 83 87 65 33 27 22 9 4 3 3 5 6 9 10 7 7 6
100 84 77 37 25 26 26 26 23 19 12 8 11 17 10 13 17 23 36 20 19 20 42 75 73 70 73 75 74 82 93 89 74 69 53 31 28 18 8 6 6 8 14 7 14 12 10
99 99 79 67 41 22 17 18 15 11 9 14 22 35 29 49 37 55 74 40 8 17 35 92 98 100 78 70 72 80 87 53 55 78 74 59 29 17 15 15 15 14 12 17 15 13 11
100 99 94 87 75 52 32 18 13 14 16 30 34 50 44 72 86 72 62 38 26 26 94 90 100 99 79 82 95 94 81 40 49 52 86 72 66 53 22 18 16 16 15 17 17 18 14
85 80 79 78 75 71 47 36 23 18 35 38 39 49 53 67 73 80 64 53 54 62 78 100 86 100 96 91 100 83 72 61 60 62 84 74 60 45 44 34 25 26 23 20 18 16 18
87 65 71 53 20 20 46 57 56 54 45 40 45 49 58 50 52 75 100 74 68 66 99 67 94 98 98 100 100 94 79 63 75 88 92 85 76 69 45 42 38 36 31 30 24 25 25
100 100 100 100 100 91 18 38 47 47 35 42 46 61 72 63 56 71 84 90 61 62 56 81 99 100 100 100 95 88 86 81 79 87 92 100 99 96 88 63 49 48 44 35 28 31 34
100 100 100 100 100 91 55 19 27 29 27 33 43 59 59 55 61 62 72 100 91 64 95 100 99 100 98 100 100 75 88 86 76 75 86 97 91 86 71 87 63 49 42 44 41 45 45
100 100 100 100 84 75 60 24 20 20 21 24 31 50 42 44 50 69 56 78 84 60 72 100 89 98 100 83 91 93 97 88 69 78 75 89 82 83 65 67 92 79 44 39 53 56 71
96 98 100 94 84 87 88 70 48 38 34 35 39 49 62 48 41 60 72 98 68 66 49 82 95 100 100 90 100 100 99 100 100 100 100 100 98 89 53 69 98 81 56 46 54 56 55
83 82 64 58 61 59 50 49 58 65 53 48 43 50 54 44 40 42 63 78 100 94 51 64 86 100 78 80 100 99 100 100 100 97 100 97 100 100 70 100 100 48 61 65 59 53 52
70 60 42 39 45 35 28 31 43 71 78 70 57 73 59 75 47 65 90 91 100 100 65 79 91 100 98 100 100 100 100 99 95 99 99 95 100 98 93 97 84 61 46 58 67 53 64
52 40 39 36 25 24 32 30 43 43 71 65 54 82 99 95 79 95 92 96 100 89 69 94 100 100 100 100 100 98 100 93 100 100 96 99 99 100 94 100 91 36 69 71 98 72 66
49 46 28 40 28 23 20 38 62 74 71 75 74 96 100 97 82 80 87 75 71 74 52 83 98 98 100 100 100 99 97 100 100 100 98 96 98 98 98 98 76 48 61 94 95 38 76
27 35 24 25 27 26 22 44 82 98 93 65 66 85 98 100 100 95 86 72 60 52 39 52 100 100 100 100 99 100 97 98 100 90 96 98 99 97 100 99 73 59 64 63 65 78 72
10 15 19 20 21 32 29 30 56 100 100 85 84 62 100 100 100 100 100 98 62 47 34 34 76 90 100 100 100 100 97 98 94 97 99 96 95 92 98 88 87 87 81 79 78 76 82
Wind_Speed
63 63 64 65 66 66 67 68 67 67 67 66 65 65 64 64 66 68 71 74 68 60 59 59 60 58 58 56 48 49 47 45 41 38 40 45 44 43 42 41 40 36 37 38 35 35 37
63 63 64 66 68 67 66 66 67 66 67 67 67 66 65 65 64 66 71 70 75 74 69 62 63 61 61 59 49 54 51 48 47 43 42 42 46 46 44 44 44 40 40 40 37 37 38
63 63 64 65 67 67 66 65 66 66 66 67 67 67 67 66 67 66 67 74 74 81 76 70 67 64 64 56 55 59 54 50 50 47 44 42 43 46 46 45 47 44 42 42 39 39 35
64 63 63 64 66 65 65 66 67 67 68 68 68 68 68 67 68 68 70 69 74 76 81 80 73 68 68 57 59 59 57 55 52 52 48 45 43 45 45 47 49 49 46 45 38 39 39
64 65 64 64 65 66 65 67 67 67 68 69 68 68 68 69 69 70 70 74 74 77 80 79 76 70 70 62 60 56 60 57 55 55 53 50 47 46 46 49 51 51 46 41 39 40 43
65 65 65 65 65 66 67 68 68 68 68 68 69 68 69 70 71 71 72 72 77 80 82 84 81 82 80 64 57 59 65 60 60 58 57 55 51 50 49 50 50 43 40 39 38 37 43
69 68 67 67 67 67 68 68 69 69 68 68 69 70 71 72 73 73 74 74 77 80 77 81 80 78 83 70 65 64 68 64 64 63 61 58 56 54 48 43 40 41 42 42 39 37 46
71 71 70 69 69 69 70 70 70 71 71 70 70 71 73 74 76 76 75 76 78 82 86 82 81 80 78 84 71 63 68 67 66 65 63 61 60 51 49 47 46 44 44 44 39 36 47
75 73 72 71 70 69 70 70 71 71 71 71 72 72 74 75 77 76 75 73 76 79 86 86 85 84 81 80 83 68 67 65 64 66 64 63 57 54 52 50 47 47 48 44 39 38 45
76 75 73 71 69 69 69 69 70 70 70 70 70 71 73 76 74 73 72 73 75 76 81 84 82 86 85 86 83 79 69 70 68 65 64 65 60 59 57 57 53 52 47 43 43 43 47
73 72 72 71 71 69 69 68 69 68 69 69 69 70 72 74 72 71 75 76 77 75 75 88 83 88 86 88 80 82 78 75 73 70 70 66 64 63 60 53 52 51 47 46 47 51 52
67 67 68 69 69 69 68 65 64 65 66 66 66 68 71 72 72 70 75 76 76 83 85 77 87 86 89 82 85 81 82 78 72 72 71 67 63 62 59 56 55 53 55 52 55 56 61
57 60 62 63 65 66 65 63 62 62 63 63 64 65 67 69 67 68 74 74 77 90 91 62 88 87 83 80 86 90 90 86 82 80 78 73 72 68 66 65 61 61 61 58 58 62 65
37 48 56 58 62 63 63 62 62 62 61 61 62 63 61 64 63 61 69 70 61 89 104 74 70 82 84 91 92 92 92 95 87 79 75 76 74 70 69 68 65 65 64 62 62 62 56
32 34 38 49 56 59 62 64 64 63 61 61 59 58 57 52 50 53 59 67 76 81 106 76 65 69 74 83 91 93 97 94 90 87 83 79 80 75 70 66 66 65 66 57 60 58 59
26 28 32 36 41 49 56 61 63 61 58 58 57 55 48 46 49 51 56 66 75 81 99 96 86 73 74 74 85 93 96 92 88 87 82 84 80 75 72 68 69 65 56 60 61 62 62
17 21 26 31 35 37 40 44 47 50 53 57 56 57 45 45 47 53 63 68 67 75 68 81 89 76 78 77 65 75 84 87 88 85 88 84 83 80 75 78 73 70 71 67 63 61 62
20 22 23 25 27 28 32 35 40 45 51 59 57 57 45 48 51 55 59 59 59 59 85 75 80 76 74 74 62 64 74 80 74 81 89 85 88 85 83 77 68 66 65 60 64 65 63
6 6 7 10 16 23 28 32 36 42 53 56 55 49 47 49 54 52 56 52 52 60 65 93 83 60 40 53 54 62 59 62 75 78 87 86 87 85 83 79 74 75 75 71 68 66 69
4 5 6 9 12 13 19 30 34 41 52 52 51 51 49 52 49 53 53 57 48 54 57 67 83 78 52 49 52 49 47 52 66 73 75 81 90 94 93 85 78 79 77 73 68 67 71
2 3 4 6 9 10 12 19 27 39 45 49 53 51 43 44 42 46 54 58 43 49 65 68 69 59 63 52 43 46 43 46 57 68 69 74 81 86 85 85 82 77 75 75 75 74 75
6 7 9 12 13 16 18 23 28 36 44 50 52 46 41 39 43 47 48 58 41 42 64 71 82 62 56 63 47 41 41 43 50 57 69 70 75 78 81 80 82 85 82 77 81 82 80
7 8 10 14 17 19 20 24 33 39 46 48 46 47 46 43 42 42 46 44 34 35 51 70 69 76 68 51 50 43 40 40 39 47 55 63 69 73 77 80 84 87 88 86 86 83 81
8 8 11 14 17 19 23 27 31 37 44 45 39 40 46 50 44 34 37 35 43 34 44 58 63 81 68 56 53 56 51 42 46 49 45 51 60 64 63 72 81 80 83 88 85 80 77
9 9 11 12 14 15 19 24 29 32 34 38 38 38 34 43 41 35 39 36 36 38 47 64 66 58 61 64 59 58 52 50 50 52 45 49 52 53 58 64 67 66 59 65 75 63 64
13 12 12 13 15 14 21 31 33 30 27 26 29 34 37 40 41 35 33 32 38 35 46 62 55 54 68 62 65 59 54 59 54 55 57 44 40 54 58 59 61 41 51 52 55 61 53
20 17 14 13 15 15 21 12 18 25 21 25 24 27 29 37 32 28 28 33 32 32 39 64 60 62 70 70 60 57 66 49 63 53 53 62 45 55 53 61 57 50 51 55 60 47 35
22 18 16 14 15 11 11 7 12 15 26 21 27 23 28 37 34 31 29 28 29 29 37 65 68 66 61 68 66 66 71 71 67 62 61 61 55 55 50 55 56 54 54 53 45 42 45
25 23 20 17 13 11 7 7 10 17 31 25 24 19 25 41 37 42 30 33 30 32 35 47 67 77 68 68 56 51 67 63 68 66 62 67 59 60 57 53 53 57 62 57 53 49 47
Wind_Direction
253 251 249 247 243 241 242 244 244 244 243 242 241 240 240 242 240 239 237 235 240 240 238 238 238 234 236 235 232 232 234 236 238 237 232 230 228 224 222 224 228 227 232 237 237 240 245
254 251 248 245 243 239 239 241 243 244 243 242 242 239 239 240 241 240 238 236 236 240 243 239 237 236 234 235 232 234 232 234 236 239 238 233 232 230 226 228 228 228 229 236 237 241 246
255 253 250 246 242 240 239 240 241 242 242 240 239 239 239 238 238 239 238 239 237 236 240 242 237 235 235 232 231 238 231 232 237 237 239 238 236 234 230 233 234 233 230 235 238 243 246
254 251 250 248 246 242 242 242 242 243 242 242 240 239 239 238 238 238 238 238 239 240 237 241 240 236 234 232 232 233 237 233 233 237 238 237 235 237 233 234 237 237 236 235 235 242 244
253 251 249 246 245 244 243 242 243 243 244 243 242 241 241 240 239 239 238 237 237 238 239 235 236 235 234 230 233 233 238 236 234 235 237 237 235 235 235 233 234 234 234 236 233 239 243
252 251 249 248 245 243 242 241 241 240 241 243 244 244 243 242 241 240 239 238 236 238 237 236 236 233 233 230 232 233 234 235 235 234 235 237 237 237 236 235 237 244 243 239 239 240 245
250 250 249 247 247 245 243 242 241 241 240 240 242 243 242 242 241 242 240 239 238 237 237 238 239 239 238 231 231 231 233 232 233 233 233 236 238 239 242 241 241 240 239 239 236 236 244
250 249 248 247 246 245 245 244 243 242 241 241 240 240 241 240 241 240 240 239 240 239 240 239 238 237 237 234 228 230 236 234 235 235 235 234 238 241 240 238 239 239 240 240 239 239 249
252 251 249 248 247 246 246 244 243 243 242 241 240 239 239 239 239 240 240 241 241 237 241 238 238 237 235 237 233 229 234 237 235 237 237 238 237 238 241 243 243 243 245 247 249 246 251
251 252 251 250 248 246 245 246 245 244 243 242 241 240 240 238 238 239 240 240 240 235 238 237 240 236 236 235 235 229 229 234 234 234 234 236 235 234 235 238 239 241 245 248 248 246 251
253 252 251 251 251 249 244 244 244 244 243 243 242 242 241 240 238 238 236 237 235 226 243 236 236 235 236 235 239 230 227 228 232 230 232 232 233 236 236 241 242 246 246 249 248 248 249
248 248 249 249 248 247 245 243 242 242 243 244 244 243 242 242 239 237 236 235 232 221 231 237 235 235 237 233 233 230 231 229 230 233 230 231 232 235 237 237 240 242 242 240 244 246 248
249 243 242 242 243 243 243 242 242 243 243 245 245 245 244 242 239 238 237 234 229 220 219 230 234 233 232 232 232 231 228 227 226 229 227 227 231 228 229 231 234 236 239 238 241 243 251
246 246 243 241 240 240 242 242 242 241 243 243 242 242 243 242 241 238 238 234 231 222 218 221 226 232 230 237 234 230 229 230 226 228 232 233 233 234 230 232 235 239 239 243 247 249 258
243 240 243 244 243 242 240 240 241 241 240 238 234 235 237 236 237 238 241 236 224 224 216 217 220 230 230 230 228 228 228 231 235 231 230 234 234 234 237 236 239 239 239 247 250 253 256
252 249 240 237 242 245 244 242 242 240 235 228 224 227 229 231 235 237 239 242 232 223 218 221 223 229 231 229 232 228 230 231 230 234 234 235 238 236 239 239 237 240 245 245 248 249 252
259 253 246 240 236 235 236 237 237 231 224 218 217 224 220 228 232 237 235 239 233 218 214 224 227 226 230 229 230 232 231 233 232 231 229 232 235 238 236 236 239 240 237 238 242 248 250
265 258 254 251 247 241 233 228 224 219 215 212 217 224 218 227 231 234 240 239 234 217 213 216 217 219 224 226 230 234 232 231 233 232 230 232 232 235 240 240 240 244 246 249 251 251 254
268 251 246 245 244 241 236 228 217 216 211 210 218 224 222 225 233 237 244 244 236 223 219 219 212 205 212 233 232 230 229 228 227 226 228 227 230 233 237 239 238 238 239 240 245 248 248
267 270 261 249 246 244 230 225 221 214 207 211 219 223 227 229 231 235 240 234 242 235 224 214 220 217 209 227 232 231 229 225 224 226 227 232 238 239 239 243 248 245 243 241 243 246 250
1 291 264 251 248 241 232 221 210 206 208 217 225 231 235 232 239 238 239 234 238 238 210 206 204 204 218 217 223 235 223 220 222 225 227 230 231 234 237 237 241 246 246 245 246 248 251
344 317 291 277 260 249 235 225 214 212 218 227 233 239 242 241 240 236 229 232 238 232 217 212 213 206 209 213 209 217 224 223 222 224 227 229 233 232 235 238 238 242 243 243 245 247 249
323 312 303 294 287 269 253 238 231 230 231 236 242 242 238 234 238 233 234 223 241 228 223 216 214 210 213 211 213 220 220 214 216 218 226 228 230 230 237 238 237 236 239 243 244 247 252
308 303 287 283 284 278 266 258 241 231 234 237 240 239 245 238 231 232 220 222 225 238 220 214 217 211 200 214 229 217 213 217 221 225 220 228 234 238 240 236 235 245 243 246 250 252 255
296 312 309 307 312 284 273 269 260 240 231 232 232 240 242 234 219 213 221 217 229 235 224 207 199 209 222 213 218 213 217 213 213 207 216 228 232 235 236 239 243 240 242 244 248 253 256
282 301 311 333 336 311 288 285 248 229 227 217 235 234 223 216 210 210 209 219 233 236 223 204 196 197 212 210 214 213 228 220 221 214 211 203 218 232 236 239 242 235 239 242 245 246 247
271 282 297 308 328 326 331 340 175 193 205 219 221 206 198 200 192 205 217 226 229 235 229 204 196 204 214 219 218 229 226 233 225 218 215 217 214 224 232 232 243 236 236 240 240 245 242
266 266 273 287 311 319 331 150 173 222 210 197 196 184 206 224 213 204 222 225 227 231 233 215 204 203 195 210 220 221 230 231 228 224 219 220 227 218 216 217 229 237 240 237 240 240 236
271 268 265 262 288 284 281 270 213 183 192 180 187 188 226 230 243 220 235 227 242 235 231 229 218 203 201 205 215 213 224 223 223 227 224 229 229 225 231 229 232 242 244 244 244 244 243